Location: Copeville
(33.0796°N, 96.4155°W)
Time: 12:04:28
(UTC+00:00)

Cosmos 1328 Rocket - Pass Details

Date: 06 July 2022
Orbit: 600 x 627 km, 82.5° (Epoch: 12 August)

Event Time Altitude Azimuth Distance (km) Brightness Sun altitude
Rises 09:11:32 0° 340° (NNW) 2,893 7.4 -22.3°
Reaches altitude 10° 09:14:00 10° 329° (NNW) 1,978 6.3 -22.0°
Enters shadow 09:16:44 26° 294° (WNW) 1,228 4.9 -21.6°
